Regional Weather Roundup
Issued by NWS Goodland, KS

Home | Current Version | Previous Version | Text Only | Print | Product List | Glossary On
Versions: 1 2 3 4 5 6 7 8 9 10 11 12 13 14 15 16 17 18 19 20 21 22 23 24 25 26 27 28 29 30 31 32 33 34 35 36 37 38 39 40 41 42 43 44 45 46 47 48 49 50
000
ASUS43 KGLD 202208
RWRGLD

GOODLAND FORECAST AREA HOURLY WEATHER ROUNDUP
NATIONAL WEATHER SERVICE GOODLAND KS
400 PM MDT THU JUL 20 2017

...OFFICIAL OBSERVATIONS...

CITY           SKY/WX    TMP DP  RH WIND       PRES   REMARKS
GOODLAND KS    SUNNY     95  63  34 S9        29.99F
HILL CITY KS   SUNNY    104  56  20 S14       29.92F HX 103
IMPERIAL NEB   SUNNY    100  55  22 NW7       29.95F
MCCOOK NEB     MOSUNNY  103  56  21 S13       29.91F HX 102
AKRON CO       MOSUNNY   96  55  25 E9        30.07F
BURLINGTON CO  SUNNY     95  61  32 VRB6      30.03F
LIMON CO       SUNNY     92  54  27 N3        30.12F
$$

...UNOFFICIAL OBSERVATIONS...

CITY           SKY/WX    TMP DP  RH WIND       PRES   REMARKS
LENORA KS        N/A    101  32   9 MISG        N/A
NORTON KS      SUNNY     99  45  15 SE7       29.91
SHARON SPRINGS   N/A     97  65  34 SW8         N/A
TRIBUNE KS     SUNNY     99  63  30 SW12      30.01F HX 100
TRENTON NEB      N/A    104  32   8 S8          N/A
KIT CARSON CO    N/A     95  59  29 CALM        N/A
YUMA CO        FAIR      90  41  18 NE9       30.04F
$$



USA.gov is the U.S. government's official web portal to all federal, state and local government web resources and services.